Port Aransas, TX

3:00 AM CDT on May 25, 2017 (GMT -0500)
Port Aransas

Weather History for KRAS - November, 2013

Change the Weather History Date:

Sunday, November 24, 2013

  Actual Average (KNGP) Record (KNGP)
Temperature  
Mean Temperature 44 °F -  
Max Temperature 47 °F 70 °F 81 °F (2008)
Min Temperature 42 °F 55 °F 42 °F (2003)
Degree Days  
Heating Degree Days 20    
Moisture  
Dew Point 40 °F    
Average Humidity 82    
Maximum Humidity 96    
Minimum Humidity 70    
Precipitation  
Precipitation 0.06 in - - ()
Sea Level Pressure  
Sea Level Pressure 30.33 in    
Wind  
Wind Speed 15 mph (North)    
Max Wind Speed 21 mph    
Max Gust Speed 25 mph    
Visibility 9 miles    
Events Rain    
Averages and records for this station are not official NWS values.
T = Trace of Precipitation, MM = Missing Value Source: NWS Daily Summary

Daily Weather History Graph

Daily Weather History Graph

Search for Another Location

Airport or City:

Trip Planner

Search our weather history database for the weather conditions in past years. The results will help you decide how hot, cold, wet, or windy it might be!

Date:

Astronomy

Nov. 24, 2013 Rise Set
Actual Time 6:56 AM CST 5:33 PM CST
Civil Twilight 6:31 AM CST 5:58 PM CST
Nautical Twilight 6:03 AM CST 6:27 PM CST
Astronomical Twilight 5:34 AM CST 6:55 PM CST
Moon 11:43 PM CST (11/24) 11:59 AM CST (11/24)
Length of Visible Light 11h 26m
Length of Day
10h 36m
Waning Gibbous, 60% of the Moon is Illuminated
Nov 24
Waning Gibbous
Nov 25
Last Quarter
Dec 2
New
Dec 9
First Quarter
Dec 17
Full

Hourly Weather History & Observations

Time (CST) Temp. Windchill Dew Point Humidity Pressure Visibility Wind Dir Wind Speed Gust Speed Precip Events Conditions
12:15 AM 46.4 °F 41.5 °F 45.0 °F 95% 30.35 in 5.0 mi North 10.4 mph - N/A   Overcast
12:35 AM 46.6 °F - 45.3 °F 95% 30.35 in 3.0 mi North 13.8 mph - N/A   Overcast
12:55 AM 46.9 °F - 45.7 °F 95% 30.35 in 4.0 mi North 13.8 mph - N/A   Light Drizzle
1:15 AM 47.1 °F - 45.9 °F 95% 30.34 in 4.0 mi North 12.7 mph - N/A   Light Drizzle
1:35 AM 47.5 °F - 46.4 °F 96% 30.34 in 4.0 mi North 10.4 mph - N/A   Overcast
1:55 AM 47.7 °F - 46.6 °F 96% 30.34 in 4.0 mi North 12.7 mph - N/A   Overcast
2:15 AM 47.8 °F - 46.8 °F 96% 30.33 in 4.0 mi North 13.8 mph - N/A   Overcast
2:35 AM 47.7 °F - 46.4 °F 95% 30.33 in 7.0 mi North 11.5 mph - N/A   Overcast
2:55 AM 47.7 °F - 46.0 °F 94% 30.33 in 5.0 mi North 15.0 mph - N/A   Overcast
3:15 AM 47.8 °F - 46.0 °F 93% 30.33 in 7.0 mi North 12.7 mph - N/A   Overcast
3:35 AM 47.8 °F - 46.0 °F 93% 30.33 in 7.0 mi North 13.8 mph 19.6 mph N/A   Overcast
3:55 AM 47.5 °F - 45.7 °F 93% 30.33 in 7.0 mi North 18.4 mph - N/A   Overcast
4:15 AM 47.3 °F - 45.1 °F 92% 30.32 in 7.0 mi North 13.8 mph 21.9 mph N/A   Overcast
4:35 AM 47.3 °F - 44.6 °F 90% 30.33 in 10.0 mi North 18.4 mph 21.9 mph N/A   Overcast
4:55 AM 47.3 °F - 44.2 °F 89% 30.32 in 10.0 mi North 16.1 mph 21.9 mph N/A   Overcast
5:15 AM 47.3 °F - 44.1 °F 88% 30.33 in 10.0 mi North 16.1 mph 20.7 mph N/A   Overcast
5:35 AM 47.3 °F - 43.2 °F 86% 30.34 in 10.0 mi North 15.0 mph 21.9 mph N/A   Overcast
5:55 AM 47.5 °F - 41.9 °F 81% 30.35 in 10.0 mi NNE 17.3 mph 21.9 mph N/A   Overcast
6:15 AM 47.5 °F - 41.5 °F 80% 30.35 in 10.0 mi NNE 16.1 mph 23.0 mph N/A   Overcast
6:35 AM 47.3 °F - 40.8 °F 78% 30.35 in 10.0 mi North 20.7 mph - N/A   Overcast
6:55 AM 47.5 °F - 40.1 °F 76% 30.34 in 10.0 mi NNE 19.6 mph 24.2 mph N/A   Overcast
7:15 AM 47.5 °F - 40.1 °F 76% 30.35 in 10.0 mi NNE 17.3 mph - N/A   Overcast
7:35 AM 47.3 °F - 39.9 °F 76% 30.35 in 10.0 mi North 18.4 mph 21.9 mph N/A   Overcast
7:55 AM 47.3 °F - 40.6 °F 78% 30.37 in 10.0 mi NNE 16.1 mph 21.9 mph N/A   Overcast
8:15 AM 46.9 °F - 40.5 °F 78% 30.38 in 10.0 mi NNE 17.3 mph 24.2 mph N/A   Overcast
8:35 AM 46.8 °F - 39.7 °F 77% 30.39 in 10.0 mi North 16.1 mph - N/A   Overcast
8:55 AM 46.8 °F - 39.4 °F 75% 30.40 in 10.0 mi North 16.1 mph 23.0 mph N/A   Overcast
9:15 AM 46.8 °F - 39.4 °F 75% 30.38 in 10.0 mi North 15.0 mph - N/A   Overcast
9:35 AM 46.8 °F - 38.7 °F 73% 30.38 in 10.0 mi North 18.4 mph 24.2 mph N/A   Overcast
9:55 AM 46.6 °F - 39.2 °F 75% 30.38 in 10.0 mi North 18.4 mph 23.0 mph N/A   Overcast
10:15 AM 45.5 °F 37.8 °F 39.6 °F 80% 30.39 in 10.0 mi North 19.6 mph 25.3 mph N/A   Overcast
10:35 AM 45.3 °F 38.4 °F 38.5 °F 77% 30.40 in 10.0 mi North 16.1 mph 20.7 mph N/A   Overcast
10:55 AM 45.5 °F 38.1 °F 37.4 °F 73% 30.38 in 10.0 mi North 18.4 mph - N/A   Overcast
11:15 AM 45.1 °F 39.1 °F 38.1 °F 76% 30.39 in 7.0 mi North 12.7 mph 19.6 mph 0.01 in Rain Rain
11:35 AM 44.6 °F 37.8 °F 39.6 °F 82% 30.36 in 7.0 mi North 15.0 mph - 0.05 in Rain Rain
11:55 AM 44.8 °F 38.7 °F 40.1 °F 84% 30.36 in 10.0 mi North 12.7 mph 20.7 mph 0.05 in Rain Light Rain
12:15 PM 45.5 °F 38.1 °F 40.3 °F 82% 30.35 in 10.0 mi NNE 18.4 mph 21.9 mph N/A   Overcast
12:35 PM 45.5 °F 38.3 °F 40.3 °F 82% 30.34 in 10.0 mi North 17.3 mph 23.0 mph 0.01 in Rain Rain
12:55 PM 45.9 °F 39.7 °F 40.5 °F 81% 30.34 in 10.0 mi North 13.8 mph 21.9 mph 0.01 in   Overcast
1:15 PM 46.4 °F 39.5 °F 39.2 °F 76% 30.32 in 10.0 mi North 17.3 mph 23.0 mph N/A   Overcast
1:35 PM 46.4 °F 39.5 °F 39.2 °F 76% 30.32 in 10.0 mi North 17.3 mph 21.9 mph N/A   Overcast
1:55 PM 46.4 °F 40.1 °F 39.0 °F 75% 30.31 in 10.0 mi North 15.0 mph - N/A   Overcast
2:15 PM 46.8 °F - 39.4 °F 75% 30.30 in 10.0 mi North 18.4 mph 21.9 mph N/A   Overcast
2:35 PM 46.9 °F - 38.5 °F 72% 30.30 in 10.0 mi NNE 16.1 mph - N/A   Overcast
2:55 PM 46.8 °F - 38.1 °F 72% 30.30 in 10.0 mi North 18.4 mph - N/A   Overcast
3:15 PM 46.4 °F 39.8 °F 38.3 °F 73% 30.30 in 10.0 mi North 16.1 mph - N/A   Overcast
3:35 PM 46.4 °F 39.5 °F 38.7 °F 74% 30.30 in 10.0 mi North 17.3 mph 23.0 mph N/A   Overcast
3:55 PM 46.4 °F 39.8 °F 38.1 °F 73% 30.30 in 10.0 mi North 16.1 mph 20.7 mph N/A   Overcast
4:15 PM 46.6 °F - 38.3 °F 73% 30.30 in 10.0 mi North 15.0 mph 18.4 mph N/A   Overcast
4:35 PM 46.4 °F 39.8 °F 37.2 °F 70% 30.30 in 10.0 mi North 16.1 mph - N/A   Overcast
4:55 PM 46.4 °F 40.1 °F 37.4 °F 71% 30.30 in 10.0 mi NNE 15.0 mph - N/A   Overcast
5:15 PM 45.9 °F 39.7 °F 37.9 °F 74% 30.31 in 10.0 mi North 13.8 mph 18.4 mph N/A   Overcast
5:35 PM 45.5 °F 38.6 °F 37.8 °F 74% 30.30 in 10.0 mi North 16.1 mph - N/A   Overcast
5:55 PM 45.0 °F 38.9 °F 37.6 °F 75% 30.31 in 10.0 mi North 12.7 mph - N/A   Overcast
6:15 PM 44.8 °F 38.0 °F 37.8 °F 76% 30.31 in 10.0 mi North 15.0 mph 20.7 mph N/A   Overcast
6:35 PM 43.7 °F 36.9 °F 38.8 °F 83% 30.31 in 10.0 mi North 13.8 mph 19.6 mph N/A   Overcast
6:55 PM 43.7 °F 36.6 °F 39.0 °F 84% 30.31 in 10.0 mi North 15.0 mph 21.9 mph N/A   Overcast
7:15 PM 43.2 °F 35.6 °F 39.0 °F 85% 30.30 in 10.0 mi North 16.1 mph 21.9 mph N/A   Overcast
7:35 PM 43.0 °F 35.1 °F 38.8 °F 85% 30.30 in 10.0 mi North 17.3 mph - N/A   Overcast
7:55 PM 42.8 °F 34.3 °F 38.3 °F 84% 30.30 in 10.0 mi North 19.6 mph - N/A   Overcast
8:15 PM 42.6 °F 34.6 °F 37.9 °F 83% 30.30 in 10.0 mi NNE 17.3 mph - N/A   Overcast
8:35 PM 42.4 °F 34.1 °F 37.8 °F 83% 30.30 in 10.0 mi North 18.4 mph 24.2 mph N/A   Overcast
8:55 PM 42.4 °F 34.7 °F 37.6 °F 83% 30.30 in 10.0 mi North 16.1 mph - N/A   Overcast
9:15 PM 42.6 °F 34.9 °F 37.9 °F 83% 30.30 in 10.0 mi North 16.1 mph 21.9 mph N/A   Overcast
9:35 PM 42.8 °F 35.1 °F 38.1 °F 84% 30.29 in 10.0 mi North 16.1 mph 21.9 mph N/A   Overcast
9:55 PM 42.6 °F 35.2 °F 38.1 °F 84% 30.30 in 10.0 mi North 15.0 mph - N/A   Overcast
10:15 PM 42.8 °F 35.4 °F 37.6 °F 82% 30.30 in 10.0 mi North 15.0 mph 20.7 mph N/A   Overcast
10:35 PM 42.8 °F 35.1 °F 37.8 °F 82% 30.28 in 10.0 mi North 16.1 mph - N/A   Overcast
10:55 PM 42.8 °F 35.4 °F 37.4 °F 81% 30.28 in 10.0 mi North 15.0 mph 21.9 mph N/A   Overcast
11:15 PM 42.8 °F 35.4 °F 37.6 °F 82% 30.28 in 10.0 mi North 15.0 mph - N/A   Overcast
11:35 PM 42.8 °F 35.1 °F 37.4 °F 81% 30.27 in 10.0 mi North 16.1 mph 21.9 mph N/A   Overcast
11:55 PM 42.8 °F 34.8 °F 37.4 °F 81% 30.27 in 10.0 mi North 17.3 mph 21.9 mph N/A   Overcast